Change the Weather History Date:

Monday, December 16, 2013

  Actual Average Record
Temperature  
Mean Temperature 34 °F -  
Max Temperature 38 °F 50 °F 72 °F (1971)
Min Temperature 31 °F 33 °F 5 °F (1958)
Degree Days  
Heating Degree Days 30    
Moisture  
Dew Point 25 °F    
Average Humidity 71    
Maximum Humidity 85    
Minimum Humidity 52    
Precipitation  
Precipitation 0.00 in - - ()
Sea Level Pressure  
Sea Level Pressure 30.12 in    
Wind  
Wind Speed 6 mph (NNE)    
Max Wind Speed 114 mph    
Max Gust Speed 23 mph    
Visibility 10 miles    
Events      
Averages and records for this station are not official NWS values.
T = Trace of Precipitation, MM = Missing Value Source: NWS Daily Summary

Daily Weather History Graph

Daily Weather History Graph

Search for Another Location

Airport or City:

Trip Planner

Search our weather history database for the weather conditions in past years. The results will help you decide how hot, cold, wet, or windy it might be!

Date:

Astronomy

Dec. 16, 2013 Rise Set
Actual Time 7:16 AM EST 4:43 PM EST
Civil Twilight 6:46 AM EST 5:13 PM EST
Nautical Twilight 6:12 AM EST 5:47 PM EST
Astronomical Twilight 5:40 AM EST 6:19 PM EST
Moon 4:31 PM EST (12/16) 6:23 AM EST (12/16)
Length of Visible Light 10h 27m
Length of Day
9h 27m
Full, 100% of the Moon is Illuminated
Dec 16
Full
Dec 17
Full
Dec 25
Last Quarter
Jan 1
New
Jan 7
First Quarter

Hourly Weather History & Observations

Time (EST) Temp. Windchill Dew Point Humidity Pressure Visibility Wind Dir Wind Speed Gust Speed Precip Events Conditions
12:06 AM 33.3 °F 30.2 °F 26.2 °F 75% 29.99 in 10.0 mi SW 3.5 mph - N/A   Clear
12:26 AM 32.0 °F 26.4 °F 26.6 °F 80% 29.99 in 10.0 mi SW 5.8 mph - N/A   Clear
12:46 AM 33.3 °F - 27.1 °F 78% 29.99 in 10.0 mi Calm Calm - N/A   Mostly Cloudy
1:06 AM 32.2 °F 27.7 °F 27.3 °F 82% 29.99 in 10.0 mi SW 4.6 mph - N/A   Scattered Clouds
1:27 AM 31.8 °F 27.3 °F 27.3 °F 83% 29.99 in 10.0 mi SW 4.6 mph - N/A   Clear
1:47 AM 32.2 °F - 27.5 °F 83% 30.00 in 10.0 mi Calm Calm - N/A   Clear
2:07 AM 33.1 °F - 27.9 °F 81% 30.00 in 10.0 mi Calm Calm - N/A   Scattered Clouds
2:27 AM 33.3 °F - 28.0 °F 81% 30.01 in 10.0 mi Calm Calm - N/A   Scattered Clouds
2:47 AM 34.2 °F - 28.6 °F 80% 30.02 in 10.0 mi Calm Calm - N/A   Clear
3:07 AM 32.9 °F - 28.8 °F 85% 30.03 in 10.0 mi Calm Calm - N/A   Clear
3:27 AM 34.9 °F 32.0 °F 29.1 °F 79% 30.03 in 10.0 mi West 3.5 mph - N/A   Clear
3:47 AM 35.6 °F 31.7 °F 28.9 °F 77% 30.03 in 10.0 mi WNW 4.6 mph - N/A   Scattered Clouds
4:07 AM 35.4 °F 32.6 °F 28.9 °F 77% 30.03 in 10.0 mi WNW 3.5 mph - N/A   Mostly Cloudy
4:27 AM 35.6 °F 30.7 °F 28.6 °F 76% 30.04 in 10.0 mi NW 5.8 mph - N/A   Mostly Cloudy
4:47 AM 36.0 °F 30.3 °F 28.2 °F 73% 30.05 in 10.0 mi WNW 6.9 mph - N/A   Scattered Clouds
5:07 AM 37.6 °F 29.1 °F 27.7 °F 67% 30.05 in 10.0 mi NW 13.8 mph 18.4 mph N/A   Scattered Clouds
5:22 AM 38.1 °F 31.2 °F 27.9 °F 67% 30.06 in 10.0 mi NNW 10.4 mph 23.0 mph N/A   Mostly Cloudy
5:50 AM 37.4 °F 30.8 °F 26.6 °F 65% 30.08 in 10.0 mi NNW 9.2 mph - N/A   Overcast
6:50 AM 37.4 °F 30.3 °F 26.6 °F 65% 30.10 in 10.0 mi NNW 10.4 mph 17.3 mph N/A   Mostly Cloudy
7:45 AM 35.6 °F 29.9 °F 24.8 °F 65% 30.11 in 10.0 mi North 6.9 mph - N/A   Mostly Cloudy
8:45 AM 35.6 °F 28.0 °F 21.2 °F 56% 30.16 in 10.0 mi North 10.4 mph - N/A   Overcast
9:50 AM 35.6 °F - 19.4 °F 52% 30.18 in 10.0 mi NNE 113.9 mph - N/A   Mostly Cloudy
10:50 AM 35.6 °F 28.0 °F 19.4 °F 52% 30.19 in 10.0 mi North 10.4 mph - N/A   Overcast
11:50 AM 33.8 °F 29.6 °F 19.4 °F 56% 30.19 in 10.0 mi NNE 4.6 mph - N/A   Mostly Cloudy
12:50 PM 33.8 °F 29.6 °F 19.4 °F 56% 30.18 in 10.0 mi North 4.6 mph - N/A   Mostly Cloudy
1:45 PM 32.0 °F - 21.2 °F 64% 30.18 in 10.0 mi Calm Calm - N/A   Scattered Clouds
2:50 PM 35.6 °F 31.7 °F 21.2 °F 56% 30.19 in 10.0 mi North 4.6 mph - N/A   Mostly Cloudy
3:50 PM 35.6 °F - 21.2 °F 56% 30.21 in 10.0 mi Calm Calm - N/A   Mostly Cloudy
4:50 PM 33.8 °F - 23.0 °F 65% 30.21 in 10.0 mi Calm Calm - N/A   Scattered Clouds
5:50 PM 32.0 °F - 24.8 °F 75% 30.23 in 10.0 mi Calm Calm - N/A   Scattered Clouds
6:50 PM 32.0 °F 28.7 °F 24.8 °F 75% 3.02 in 10.0 mi ESE 3.5 mph - N/A   Scattered Clouds
6:53 PM 32.0 °F 28.7 °F 24.8 °F 75% 30.24 in 10.0 mi ESE 3.5 mph - N/A   Scattered Clouds
8:53 PM 32.0 °F 26.4 °F 24.8 °F 75% 30.24 in 10.0 mi SE 5.8 mph - N/A   Overcast
9:29 PM 33.3 °F 28.9 °F 24.8 °F 71% 30.24 in 10.0 mi SE 4.6 mph - N/A   Overcast
9:49 PM 33.3 °F 30.2 °F 25.2 °F 72% 30.24 in 10.0 mi SE 3.5 mph - N/A   Overcast
10:09 PM 33.3 °F 28.9 °F 25.2 °F 72% 30.24 in 10.0 mi SE 4.6 mph - N/A   Mostly Cloudy
10:29 PM 33.3 °F 28.9 °F 25.5 °F 73% 30.24 in 10.0 mi SE 4.6 mph - N/A   Scattered Clouds
10:49 PM 33.3 °F 28.9 °F 25.2 °F 72% 30.23 in 10.0 mi SE 4.6 mph - N/A   Mostly Cloudy
11:09 PM 33.3 °F 30.2 °F 25.3 °F 73% 30.24 in 10.0 mi SE 3.5 mph - N/A   Mostly Cloudy
11:29 PM 33.3 °F 28.9 °F 25.7 °F 74% 30.22 in 10.0 mi East 4.6 mph - N/A   Scattered Clouds
11:49 PM 33.3 °F 28.9 °F 25.7 °F 74% 30.22 in 10.0 mi East 4.6 mph - N/A   Mostly Cloudy